Weather in Pokrovske

Ukraine / Kirovohrad Region     48°26′50″N   32°27′40″E
temp.,
°C
wind,
m/s
gust,
m/s
humid.,
%
clouds,
%
prec.,
mm/h
press.,
hPa
HPBL,
m
23 april, fri
fri2300:00+8s5118492 0.0 1019248
03:00+7s5128316 0.0 1018274
06:00+8s6138084 0.0 1017365
09:00+11ssw71173100 0.4 1017597
12:00+14sw71068100 1.4 10161263
15:00+10nnw5686100 4.9 1017469
18:00+7nnw5982100 0.1 1018579
21:00+6nw128579 0.6 1019179
24 april, sat
sat2400:00+4wsw37944 0.0 1019153
03:00+3w4109118 0.0 1019228
06:00+2wnw49890 0.0 1019197
09:00+7wnw58610 0.0 1020802
12:00+9w7952100 0.4 10201910
15:00+8nw91158100 1.5 10201797
18:00+9nw710445 0.0 10212419
21:00+4wnw36630 0.0 1023120
25 april, sun
sun2500:00+3wsw34690 0.0 102363
03:00+2w34738 0.0 102355
06:00+1wsw33756 0.0 102247
09:00+7ssw465640 0.0 1022542
12:00+11sw574371 0.0 10201914
15:00+12sw6748100 0.0 10191846
18:00+10w4671100 0.7 10181309
21:00+7nw3592100 5.9 1019321
26 april, mon
mon2600:00+7nnw358969 1.1 1019387
03:00+5wnw1283100 1.1 101953
06:00+3nw238178 0.1 101963
09:00+6nw345981 0.1 1020634
12:00+10nw45405 0.0 10191847
15:00+11wnw5636100 0.0 10182451
18:00+11w463775 0.0 10172158
21:00+7w225431 0.0 101823
27 april, tue
tue2700:00+6s115990 0.0 101710
03:00+6ssw2261100 0.0 101644
06:00+4s2693100 5.1 1015597
09:00+6s61392100 10.8 1012799
12:00+11wnw8116580 0.8 10131599
15:00+10nw7861100 0.9 10141246
18:00+9nnw446214 0.0 10151069
21:00+5nne3583100 0.0 101795